Retour au catalogue

ATLAS D R/B

ActifLEO
NORAD 2328·ROCKET BODY·🇺🇸 United States

Lancé Jul 14, 1966 depuis Vandenberg Space Force Base

Loading…

Prochains Passages (prochaines 24 heures)

TLE

FraisSource: Space-Track

Époque: Sep 14, 2026, 23:07 UTC

1 02328U 66063C   26257.96341550  .00000258  00000-0  12170-4 0  9991
2 02328 144.2312 113.9435 0009202  70.4182  43.2544 13.69987362 12576

Suivez ATLAS D R/B en temps réel avec AllMySat

Download on the App Store